This demonstration page uses our WeatherBlox Daily Observations layout. Learn more.

38.89511, -77.03637

Hourly Observations for October 7, 2018

Temp ( °F °C ) Dew Point ( °F °C ) Humidity (%) Winds ( mph kmh ) Pressure ( in mb ) Visibility ( mi km ) Precip ( " mm )
12:52 am 00:52 Mostly Cloudy 72 22.2 68 20 87 87 S 6 9 30.17 1022 10 16.0934 0 0
1:04 am 01:04 Partly Cloudy 72 22.2 68 20 87 87 S 7 11 30.18 1022 10 16.0934 0 0
1:52 am 01:52 Cloudy 72 22.2 68 20 87 87 SSW 7 11 30.18 1022 10 16.0934 0 0
2:19 am 02:19 Mostly Cloudy 71 21.7 68 20 90 90 S 7 11 30.18 1022 10 16.0934 0 0
2:27 am 02:27 Mostly Cloudy 71 21.7 68 20 90 90 S 7 11 30.18 1022 10 16.0934 0 0
2:52 am 02:52 Cloudy 71 21.7 68 20 90 90 S 7 11 30.17 1022 10 16.0934 0 0
3:52 am 03:52 Cloudy 71 21.7 69 20.6 94 94 S 7 11 30.16 1021 9 14.48406 0 0
4:52 am 04:52 Cloudy 72 22.2 69 20.6 91 91 S 5 7 30.16 1021 10 16.0934 0 0
5:52 am 05:52 Cloudy 71 21.7 69 20.6 94 94 S 6 9 30.17 1022 10 16.0934 0 0
6:52 am 06:52 Cloudy 72 22.2 69 20.6 91 91 S 6 9 30.19 1022 10 16.0934 0 0
7:52 am 07:52 Cloudy 72 22.2 69 20.6 91 91 SW 6 9 30.21 1023 7 11.26538 0 0
8:52 am 08:52 Cloudy with Mist and Fog 73 22.8 70 21.1 90 90 S 6 9 30.21 1023 5 8.0467 0 0
9:52 am 09:52 Cloudy with Mist and Fog 73 22.8 69 20.6 87 87 S 8 13 30.23 1024 6 9.65604 0 0
10:40 am 10:40 Cloudy 73 22.8 70 21.1 90 90 S 8 13 30.24 1024 8 12.87472 0 0
10:52 am 10:52 Cloudy 73 22.8 70 21.1 90 90 SSE 7 11 30.24 1024 8 12.87472 0 0
11:31 am 11:31 Cloudy 74 23.3 70 21.1 88 88 S 7 11 30.24 1024 8 12.87472 0 0
11:52 am 11:52 Cloudy 75 23.9 70 21.1 84 84 SSE 7 11 30.24 1024 9 14.48406 0 0
12:52 pm 12:52 Cloudy 77 25 70 21.1 79 79 S 8 13 30.24 1024 10 16.0934 0 0
1:52 pm 13:52 Mostly Cloudy 79 26.1 71 21.7 77 77 SSE 7 11 30.22 1023 10 16.0934 0 0
1:56 pm 13:56 Partly Cloudy 79 26.1 71 21.7 77 77 SSE 7 11 30.21 1023 10 16.0934 0 0
2:52 pm 14:52 Mostly Sunny 80 26.7 71 21.7 74 74 S 10 17 30.2 1023 10 16.0934 0 0
3:52 pm 15:52 Mostly Sunny 81 27.2 71 21.7 72 72 S 8 13 30.19 1023 10 16.0934 0 0
4:52 pm 16:52 Mostly Sunny 82 27.8 72 22.2 72 72 SSE 7 11 30.19 1022 10 16.0934 0 0
5:52 pm 17:52 Mostly Sunny 81 27.2 72 22.2 74 74 S 5 7 30.19 1022 10 16.0934 0 0
6:52 pm 18:52 Mostly Clear 80 26.7 71 21.7 74 74 W 3 6 30.2 1023 10 16.0934 0 0
7:52 pm 19:52 Mostly Clear 77 25 71 21.7 82 82 S 3 6 30.21 1023 10 16.0934 0 0
8:52 pm 20:52 Clear 75 23.9 72 22.2 90 90 S 3 6 30.22 1023 10 16.0934 0 0
9:52 pm 21:52 Clear 75 23.9 71 21.7 88 88 S 3 6 30.23 1024 9 14.48406 0 0
10:52 pm 22:52 Clear with Mist and Fog 74 23.3 72 22.2 94 94 SSE 5 7 30.24 1024 6 9.65604 0 0
11:52 pm 23:52 Clear with Mist and Fog 74 23.3 71 21.7 91 91 Calm 30.24 1024 6 9.65604 0 0

Powered by AerisWeather